Flag for Germany Weather past 2 weeks in Wermelskirchen, North Rhine-Westphalia, Germany

Now
63 °F

Rain. Mostly cloudy.


Feels Like: 63 °F
Forecast: 50 / 63 °F
Wind: 7 mph from Northwest

Location: Koeln / Bonn

Current Time: Sep 1, 2015 at 10:22:19 AM

Latest Report: Sep 1, 2015 at 9:50 AM


Visibility: 4 mi

Pressure: 29.83 "Hg

Humidity: 94%

Dew point: 61 °F

Location of WermelskirchenLocation

Historic Weather in Wermelskirchen — Graph

°F

Wermelskirchen temperature yesterday

Maximum temperature yesterday: 90 °F (at 2:20 PM)
Minimum temperature yesterday: 64 °F (at 4:50 AM)
Average temperature yesterday: 77 °F

Past Weeks' High & Low Weather Summary

 TemperatureHumidityPressure
High93 °F (Aug 30, 4:20 PM)100% (Sep 1, 8:20 AM)30.27 "Hg (Sep 1, 8:20 AM)
Low46 °F (Aug 19, 6:50 AM)26% (Aug 23, 3:20 PM)29.56 "Hg (Aug 24, 2:20 PM)
Average66 °F68%29.98 "Hg
* Reported Aug 17 8:20 AM — Sep 1 8:50 AM, Wermelskirchen, Weather by CustomWeather, © 2015

Note: Actual official high and low records may vary slightly from our data, if they occured in-between our weather recording intervals... More about our weather records

Advertising

Wermelskirchen weather history for previous 24 hours

 ConditionsComfort  
Time TempWeatherWind HumidityBarometerVisibility
8:50 AM
Tue, Sep 1
63 °FRain. Mostly cloudy.5 mph94%29.83 "Hg5 mi
8:20 AM61 °FLight rain. More clouds than sun.6 mph100%29.80 "Hg6 mi
7:50 AM61 °FHeavy rain. Partly sunny.8 mph94%29.83 "Hg2 mi
7:20 AM63 °FHeavy rain. Partly cloudy.9 mph88%29.86 "Hg2 mi
6:50 AM64 °FPassing clouds.7 mph78%29.83 "HgN/A
5:50 AM64 °FOvercast.10 mph83%29.83 "HgN/A
5:20 AM66 °FOvercast.10 mph78%29.83 "HgN/A
4:50 AM66 °FOvercast.12 mph83%29.83 "HgN/A
4:20 AM66 °FPassing clouds.14 mph83%29.83 "HgN/A
3:50 AM68 °FPartly cloudy.17 mph78%29.83 "HgN/A
3:20 AM70 °FPartly cloudy.7 mph83%29.83 "HgN/A
2:50 AM70 °FPartly cloudy.7 mph78%29.83 "HgN/A
2:20 AM70 °FPartly cloudy.7 mph78%29.83 "HgN/A
1:50 AM70 °FPartly cloudy.7 mph78%29.83 "HgN/A
1:20 AM72 °FPartly cloudy.8 mph73%29.86 "HgN/A
12:50 AM72 °FPassing clouds.8 mph73%29.83 "HgN/A
12:20 AM72 °FPassing clouds.10 mph73%29.83 "HgN/A
11:50 PM
Mon, Aug 31
70 °FClear.7 mph78%29.83 "Hg10 mi
11:20 PM70 °FClear.7 mph78%29.83 "Hg10 mi
10:50 PM72 °FClear.7 mph73%29.83 "Hg10 mi
10:20 PM72 °FClear.6 mph73%29.83 "Hg10 mi
9:50 PM73 °FClear.8 mph69%29.83 "Hg10 mi
9:20 PM73 °FClear.14 mph65%29.83 "Hg10 mi
8:50 PM77 °FSunny.18 mph57%29.83 "Hg10 mi
8:20 PM81 °FSunny.7 mph42%29.80 "Hg10 mi
7:50 PM82 °FSunny.6 mph40%29.77 "Hg10 mi
7:20 PM82 °FSunny.8 mph37%29.77 "Hg10 mi
6:50 PM86 °FSunny.13 mph31%29.80 "Hg10 mi
6:20 PM86 °FSunny.13 mph31%29.77 "Hg10 mi
5:50 PM88 °FSunny.14 mph29%29.80 "Hg10 mi
5:20 PM88 °FSunny.15 mph29%29.80 "Hg10 mi
4:50 PM88 °FSunny.15 mph27%29.80 "Hg10 mi
4:20 PM90 °FSunny.15 mph27%29.80 "Hg10 mi
3:50 PM90 °FSunny.15 mph29%29.80 "Hg10 mi
3:20 PM88 °FSunny.14 mph29%29.80 "Hg10 mi
2:50 PM90 °FSunny.15 mph27%29.80 "Hg10 mi
2:20 PM90 °FSunny.13 mph31%29.83 "Hg10 mi
1:50 PM88 °FSunny.17 mph31%29.83 "Hg10 mi
1:20 PM88 °FSunny.15 mph33%29.83 "Hg10 mi
12:50 PM86 °FSunny.15 mph38%29.83 "Hg10 mi
12:20 PM84 °FSunny.15 mph43%29.83 "Hg10 mi
11:50 AM82 °FSunny.13 mph42%29.86 "Hg10 mi
11:20 AM81 °FSunny.13 mph45%29.86 "Hg10 mi
10:50 AM81 °FSunny.12 mph48%29.86 "Hg10 mi
10:20 AM79 °FSunny.6 mph58%29.89 "Hg10 mi
Weather by CustomWeather, © 2015

See weather overviewHow to use our weather pages